Coeur d'Alene, ID

4:52 PM PDT on May 27, 2017 (GMT -0700)
Coeur D'Alene

Weather History for KCOE - May, 2013

Change the Weather History Date:

Friday, May 10, 2013

  Actual Average Record
Temperature  
Mean Temperature 66 °F -  
Max Temperature 84 °F 60 °F 84 °F (2013)
Min Temperature 48 °F 37 °F 28 °F (1999)
Cooling Degree Days 1    
Growing Degree Days 16 (Base 50)    
Moisture  
Dew Point 44 °F    
Average Humidity 46    
Maximum Humidity 82    
Minimum Humidity 19    
Precipitation  
Precipitation 0.00 in - - ()
Sea Level Pressure  
Sea Level Pressure 30.15 in    
Wind  
Wind Speed 5 mph (ESE)    
Max Wind Speed 14 mph    
Max Gust Speed 18 mph    
Visibility 10 miles    
Events      
Averages and records for this station are not official NWS values.
T = Trace of Precipitation, MM = Missing Value Source: NWS Daily Summary

Daily Weather History Graph

Daily Weather History Graph

Search for Another Location

Airport or City:

Trip Planner

Search our weather history database for the weather conditions in past years. The results will help you decide how hot, cold, wet, or windy it might be!

Date:

Astronomy

May. 10, 2013 Rise Set
Actual Time 5:15 AM PDT 8:12 PM PDT
Civil Twilight 4:39 AM PDT 8:48 PM PDT
Nautical Twilight 3:53 AM PDT 9:35 PM PDT
Astronomical Twilight 2:57 AM PDT 10:32 PM PDT
Moon 5:42 AM PDT (5/10) 9:07 PM PDT (5/10)
Length of Visible Light 16h 09m
Length of Day
14h 57m
New Moon, 1% of the Moon is Illuminated
May 10
New Moon
May 17
First Quarter
May 24
Full
May 31
Last Quarter
Jun 8
New

Hourly Weather History & Observations

Time (PDT) Temp. Dew Point Humidity Pressure Visibility Wind Dir Wind Speed Gust Speed Precip Events Conditions
12:15 AM 60.8 °F 37.4 °F 42% 30.09 in 10.0 mi SE 6.9 mph - N/A   Clear
12:35 AM 57.2 °F 42.8 °F 59% 30.10 in 10.0 mi Calm Calm - N/A   Clear
12:55 AM 57.2 °F 35.6 °F 44% 30.10 in 10.0 mi Calm Calm - N/A   Clear
1:15 AM 53.6 °F 37.4 °F 54% 30.11 in 10.0 mi Calm Calm - N/A   Clear
1:35 AM 55.4 °F 50.0 °F 82% 30.12 in 10.0 mi ENE 4.6 mph - N/A   Clear
1:55 AM 51.8 °F 44.6 °F 76% 30.12 in 10.0 mi ENE 8.1 mph - N/A   Clear
2:15 AM 51.8 °F 42.8 °F 71% 30.12 in 10.0 mi East 5.8 mph - N/A   Clear
2:35 AM 53.6 °F 44.6 °F 72% 30.13 in 10.0 mi Calm Calm - N/A   Clear
2:55 AM 53.6 °F 42.8 °F 67% 30.14 in 10.0 mi NE 6.9 mph - N/A   Clear
3:15 AM 51.8 °F 44.6 °F 76% 30.14 in 10.0 mi NE 8.1 mph - N/A   Clear
3:35 AM 51.8 °F 42.8 °F 71% 30.14 in 10.0 mi ENE 5.8 mph - N/A   Clear
3:55 AM 51.8 °F 42.8 °F 71% 30.15 in 10.0 mi East 5.8 mph - N/A   Clear
4:15 AM 51.8 °F 42.8 °F 71% 30.15 in 10.0 mi ENE 6.9 mph - N/A   Clear
4:35 AM 51.8 °F 42.8 °F 71% 30.16 in 10.0 mi East 5.8 mph - N/A   Clear
5:15 AM 51.8 °F 42.8 °F 71% 30.16 in 10.0 mi East 8.1 mph - N/A   Clear
5:35 AM 48.2 °F 39.2 °F 71% 30.17 in 10.0 mi ENE 8.1 mph - N/A   Clear
6:15 AM 53.6 °F 42.8 °F 67% 30.18 in 10.0 mi ENE 6.9 mph - N/A   Clear
6:35 AM 53.6 °F 44.6 °F 72% 30.18 in 10.0 mi ENE 8.1 mph - N/A   Clear
6:55 AM 55.4 °F 44.6 °F 67% 30.18 in 10.0 mi ENE 8.1 mph - N/A   Clear
7:15 AM 55.4 °F 44.6 °F 67% 30.19 in 10.0 mi East 9.2 mph - N/A   Clear
7:35 AM 57.2 °F 44.6 °F 63% 30.20 in 10.0 mi ENE 9.2 mph - N/A   Clear
7:55 AM 60.8 °F 44.6 °F 55% 30.20 in 10.0 mi ENE 11.5 mph - N/A   Clear
8:15 AM 62.6 °F 42.8 °F 48% 30.20 in 10.0 mi NE 12.7 mph - N/A   Clear
8:35 AM 64.4 °F 44.6 °F 49% 30.20 in 10.0 mi NE 11.5 mph - N/A   Clear
8:55 AM 64.4 °F 44.6 °F 49% 30.20 in 10.0 mi ENE 10.4 mph - N/A   Clear
9:15 AM 66.2 °F 44.6 °F 46% 30.20 in 10.0 mi ENE 9.2 mph - N/A   Clear
9:35 AM 69.8 °F 46.4 °F 43% 30.20 in 10.0 mi NE 8.1 mph - N/A   Clear
10:15 AM 69.8 °F 44.6 °F 40% 30.20 in 10.0 mi ENE 4.6 mph - N/A   Clear
10:35 AM 71.6 °F 44.6 °F 38% 30.20 in 10.0 mi Calm Calm - N/A   Clear
10:55 AM 73.4 °F 44.6 °F 36% 30.19 in 10.0 mi Calm Calm - N/A   Clear
11:15 AM 73.4 °F 44.6 °F 36% 30.19 in 10.0 mi Calm Calm - N/A   Clear
11:35 AM 75.2 °F 46.4 °F 36% 30.19 in 10.0 mi South 5.8 mph - N/A   Clear
11:55 AM 77.0 °F 44.6 °F 32% 30.18 in 10.0 mi Calm Calm - N/A   Clear
12:15 PM 78.8 °F 44.6 °F 30% 30.18 in 10.0 mi SSE 5.8 mph - N/A   Clear
12:35 PM 78.8 °F 44.6 °F 30% 30.18 in 10.0 mi SSE 5.8 mph - N/A   Clear
12:55 PM 80.6 °F 44.6 °F 28% 30.17 in 10.0 mi SSW 3.5 mph - N/A   Clear
1:15 PM 80.6 °F 46.4 °F 30% 30.17 in 10.0 mi WSW 8.1 mph - N/A   Clear
1:35 PM 80.6 °F 46.4 °F 30% 30.16 in 10.0 mi SSW 6.9 mph - N/A   Clear
1:55 PM 80.6 °F 46.4 °F 30% 30.16 in 10.0 mi Calm Calm - N/A   Clear
2:15 PM 82.4 °F 46.4 °F 28% 30.15 in 10.0 mi WSW 8.1 mph - N/A   Clear
2:35 PM 82.4 °F 46.4 °F 28% 30.15 in 10.0 mi SW 6.9 mph - N/A   Clear
2:55 PM 82.4 °F 46.4 °F 28% 30.14 in 10.0 mi WSW 9.2 mph - N/A   Clear
3:15 PM 84.2 °F 44.6 °F 25% 30.14 in 10.0 mi West 5.8 mph - N/A   Clear
3:35 PM 84.2 °F 44.6 °F 25% 30.13 in 10.0 mi WSW 13.8 mph 18.4 mph N/A   Clear
3:55 PM 84.2 °F 44.6 °F 25% 30.13 in 10.0 mi West 8.1 mph - N/A   Clear
4:15 PM 84.2 °F 44.6 °F 25% 30.12 in 10.0 mi SW 5.8 mph - N/A   Clear
4:35 PM 84.2 °F 37.4 °F 19% 30.12 in 10.0 mi WNW 11.5 mph 17.3 mph N/A   Clear
4:55 PM 84.2 °F 41.0 °F 22% 30.12 in 10.0 mi South 3.5 mph - N/A   Clear
5:15 PM 84.2 °F 39.2 °F 20% 30.11 in 10.0 mi West 10.4 mph - N/A   Clear
5:35 PM 84.2 °F 39.2 °F 20% 30.10 in 10.0 mi WSW 3.5 mph - N/A   Clear
5:55 PM 84.2 °F 39.2 °F 20% 30.10 in 10.0 mi WNW 5.8 mph - N/A   Clear
6:15 PM 80.6 °F 41.0 °F 24% 30.10 in 10.0 mi WSW 5.8 mph - N/A   Clear
6:35 PM 78.8 °F 50.0 °F 36% 30.10 in 10.0 mi SW 4.6 mph - N/A   Partly Cloudy
6:55 PM 78.8 °F 48.2 °F 34% 30.10 in 10.0 mi Calm Calm - N/A   Mostly Cloudy
7:15 PM 80.6 °F 46.4 °F 30% 30.10 in 10.0 mi Calm Calm - N/A   Partly Cloudy
7:35 PM 78.8 °F 51.8 °F 39% 30.11 in 10.0 mi Calm Calm - N/A   Partly Cloudy
7:55 PM 73.4 °F 46.4 °F 38% 30.11 in 10.0 mi SW 3.5 mph - N/A   Scattered Clouds
8:15 PM 73.4 °F 44.6 °F 36% 30.11 in 10.0 mi SSE 4.6 mph - N/A   Scattered Clouds
8:35 PM 73.4 °F 44.6 °F 36% 30.11 in 10.0 mi SSE 5.8 mph - N/A   Mostly Cloudy
8:55 PM 71.6 °F 46.4 °F 41% 30.12 in 10.0 mi SE 6.9 mph - N/A   Mostly Cloudy
9:15 PM 69.8 °F 46.4 °F 43% 30.12 in 10.0 mi SE 6.9 mph - N/A   Scattered Clouds
9:35 PM 68.0 °F 46.4 °F 46% 30.13 in 10.0 mi SE 4.6 mph - N/A   Partly Cloudy
9:55 PM 62.6 °F 48.2 °F 59% 30.13 in 10.0 mi Calm Calm - N/A   Clear
10:15 PM 62.6 °F 46.4 °F 55% 30.13 in 10.0 mi Calm Calm - N/A   Clear
10:35 PM 60.8 °F 46.4 °F 59% 30.13 in 10.0 mi Calm Calm - N/A   Clear
10:55 PM 60.8 °F 48.2 °F 63% 30.13 in 10.0 mi East 3.5 mph - N/A   Clear
11:15 PM 60.8 °F 48.2 °F 63% 30.14 in 10.0 mi East 4.6 mph - N/A   Clear
11:35 PM 60.8 °F 46.4 °F 59% 30.14 in 10.0 mi East 3.5 mph - N/A   Clear
11:55 PM 60.8 °F 46.4 °F 59% 30.14 in 10.0 mi SE 3.5 mph - N/A   Clear